owner,sensor,date,latitude,longitude,vertical_datum,wind_speed,wind_to_direction,wind_speed_of_gust,qcFlag 
TCOON,ioos:station:TCOON:005:1,2009-06-01T00:00:00Z,27.6346,-97.2370,0.0,6.6,120.0,7.5,'11111222,11111222,11111222' 
TCOON,ioos:station:TCOON:005:1,2009-06-01T01:00:00Z,27.6346,-97.2370,0.0,4.8,123.0,5.7,'11111222,11111222,11111222' 
TCOON,ioos:station:TCOON:005:1,2009-06-01T03:00:00Z,27.6346,-97.2370,0.0,4.6,123.0,5.5,'11111222,11111222,11111222' 
TCOON,ioos:station:TCOON:005:1,2009-06-01T04:00:00Z,27.6346,-97.2370,0.0,3.7,137.0,4.7,'11111222,11111222,11111222' 
TCOON,ioos:station:TCOON:005:1,2009-06-01T05:00:00Z,27.6346,-97.2370,0.0,3.2,149.0,4.7,'11111222,11111222,11111222' 
TCOON,ioos:station:TCOON:005:1,2009-06-01T06:00:00Z,27.6346,-97.2370,0.0,4.9,155.0,6.4,'11111222,11111222,11111222' 
TCOON,ioos:station:TCOON:005:1,2009-06-01T07:00:00Z,27.6346,-97.2370,0.0,4.9,146.0,6.6,'11111222,11111222,11111222' 
TCOON,ioos:station:TCOON:005:1,2009-06-01T08:00:00Z,27.6346,-97.2370,0.0,5.3,137.0,7.4,'11111222,11111222,11111222' 
TCOON,ioos:station:TCOON:005:1,2009-06-01T09:00:00Z,27.6346,-97.2370,0.0,4.2,144.0,5.7,'11111222,11111222,11111222' 
TCOON,ioos:station:TCOON:005:1,2009-06-01T10:00:00Z,27.6346,-97.2370,0.0,5.1,133.0,6.2,'11111222,11111222,11111222' 
TCOON,ioos:station:TCOON:005:1,2009-06-01T11:00:00Z,27.6346,-97.2370,0.0,5.0,137.0,6.4,'11111222,11111222,11111222' 
TCOON,ioos:station:TCOON:005:1,2009-06-01T12:00:00Z,27.6346,-97.2370,0.0,4.4,129.0,5.7,'11111222,11111222,11111222' 
TCOON,ioos:station:TCOON:005:1,2009-06-01T13:00:00Z,27.6346,-97.2370,0.0,6.4,123.0,7.9,'11111222,11111222,11111222' 
TCOON,ioos:station:TCOON:005:1,2009-06-01T14:00:00Z,27.6346,-97.2370,0.0,5.0,131.0,6.3,'11111222,11111222,11111222' 
TCOON,ioos:station:TCOON:005:1,2009-06-01T15:00:00Z,27.6346,-97.2370,0.0,4.7,141.0,6.3,'11111222,11111222,11111222' 
TCOON,ioos:station:TCOON:005:1,2009-06-01T16:00:00Z,27.6346,-97.2370,0.0,6.1,119.0,8.5,'11111222,11111222,11111222' 
TCOON,ioos:station:TCOON:005:1,2009-06-01T17:00:00Z,27.6346,-97.2370,0.0,5.5,105.0,6.6,'11111222,11111222,11111222' 
TCOON,ioos:station:TCOON:005:1,2009-06-01T18:00:00Z,27.6346,-97.2370,0.0,5.1,105.0,6.7,'11111222,11111222,11111222' 
TCOON,ioos:station:TCOON:005:1,2009-06-01T19:00:00Z,27.6346,-97.2370,0.0,6.2,122.0,7.3,'11111222,11111222,11111222' 
TCOON,ioos:station:TCOON:005:1,2009-06-01T20:00:00Z,27.6346,-97.2370,0.0,8.0,106.0,9.8,'11111222,11111222,11111222' 
TCOON,ioos:station:TCOON:005:1,2009-06-01T21:00:00Z,27.6346,-97.2370,0.0,8.8,116.0,10.6,'11111222,11111222,11111222' 
TCOON,ioos:station:TCOON:005:1,2009-06-01T22:00:00Z,27.6346,-97.2370,0.0,6.6,125.0,7.7,'11111222,11111222,11111222' 
TCOON,ioos:station:TCOON:005:1,2009-06-01T23:00:00Z,27.6346,-97.2370,0.0,7.2,128.0,8.6,'11111222,11111222,11111222' 
TCOON,ioos:station:TCOON:005:1,2009-06-02T00:00:00Z,27.6346,-97.2370,0.0,5.8,124.0,7.6,'11111222,11111222,11111222' 
TCOON,ioos:station:TCOON:005:1,2009-06-02T01:00:00Z,27.6346,-97.2370,0.0,6.9,130.0,8.7,'11111222,11111222,11111222' 
TCOON,ioos:station:TCOON:005:1,2009-06-02T02:00:00Z,27.6346,-97.2370,0.0,7.1,127.0,9.3,'11111222,11111222,11111222' 
TCOON,ioos:station:TCOON:005:1,2009-06-02T03:00:00Z,27.6346,-97.2370,0.0,6.8,124.0,8.7,'11111222,11111222,11111222' 
TCOON,ioos:station:TCOON:005:1,2009-06-02T04:00:00Z,27.6346,-97.2370,0.0,7.2,127.0,8.9,'11111222,11111222,11111222' 
TCOON,ioos:station:TCOON:005:1,2009-06-02T05:00:00Z,27.6346,-97.2370,0.0,6.1,139.0,8.6,'11111222,11111222,11111222' 
TCOON,ioos:station:TCOON:005:1,2009-06-02T06:00:00Z,27.6346,-97.2370,0.0,6.0,133.0,8.1,'11111222,11111222,11111222' 
TCOON,ioos:station:TCOON:005:1,2009-06-02T07:00:00Z,27.6346,-97.2370,0.0,4.4,144.0,6.1,'11111222,11111222,11111222' 
TCOON,ioos:station:TCOON:005:1,2009-06-02T08:00:00Z,27.6346,-97.2370,0.0,5.2,129.0,6.1,'11111222,11111222,11111222' 
TCOON,ioos:station:TCOON:005:1,2009-06-02T09:00:00Z,27.6346,-97.2370,0.0,4.9,133.0,6.9,'11111222,11111222,11111222' 
TCOON,ioos:station:TCOON:005:1,2009-06-02T10:00:00Z,27.6346,-97.2370,0.0,4.4,134.0,6.0,'11111222,11111222,11111222' 
TCOON,ioos:station:TCOON:005:1,2009-06-02T11:00:00Z,27.6346,-97.2370,0.0,4.2,134.0,5.9,'11111222,11111222,11111222' 
TCOON,ioos:station:TCOON:005:1,2009-06-02T12:00:00Z,27.6346,-97.2370,0.0,4.9,136.0,6.5,'11111222,11111222,11111222' 
TCOON,ioos:station:TCOON:005:1,2009-06-02T13:00:00Z,27.6346,-97.2370,0.0,4.8,133.0,5.7,'11111222,11111222,11111222' 
TCOON,ioos:station:TCOON:005:1,2009-06-02T14:00:00Z,27.6346,-97.2370,0.0,5.4,122.0,7.1,'11111222,11111222,11111222' 
TCOON,ioos:station:TCOON:005:1,2009-06-02T15:00:00Z,27.6346,-97.2370,0.0,6.2,137.0,8.4,'11111222,11111222,11111222' 
TCOON,ioos:station:TCOON:005:1,2009-06-02T16:00:00Z,27.6346,-97.2370,0.0,6.2,159.0,7.8,'11111222,11111222,11111222' 
TCOON,ioos:station:TCOON:005:1,2009-06-02T17:00:00Z,27.6346,-97.2370,0.0,5.9,143.0,16.7,'11111222,11111222,11111222' 
TCOON,ioos:station:TCOON:005:1,2009-06-02T18:00:00Z,27.6346,-97.2370,0.0,4.0,162.0,5.0,'11111222,11111222,11111222' 
TCOON,ioos:station:TCOON:005:1,2009-06-02T19:00:00Z,27.6346,-97.2370,0.0,4.4,146.0,6.3,'11111222,11111222,11111222' 
TCOON,ioos:station:TCOON:005:1,2009-06-02T20:00:00Z,27.6346,-97.2370,0.0,5.9,136.0,8.7,'11111222,11111222,11111222' 
TCOON,ioos:station:TCOON:005:1,2009-06-02T21:00:00Z,27.6346,-97.2370,0.0,7.9,114.0,9.6,'11111222,11111222,11111222' 
TCOON,ioos:station:TCOON:005:1,2009-06-02T22:00:00Z,27.6346,-97.2370,0.0,8.5,130.0,11.1,'11111222,11111222,11111222' 
TCOON,ioos:station:TCOON:005:1,2009-06-02T23:00:00Z,27.6346,-97.2370,0.0,7.0,121.0,11.8,'11111222,11111222,11111222' 
TCOON,ioos:station:TCOON:005:1,2009-06-03T00:00:00Z,27.6346,-97.2370,0.0,7.5,129.0,20.0,'11111222,11111222,11111222' 
TCOON,ioos:station:TCOON:005:1,2009-06-03T01:00:00Z,27.6346,-97.2370,0.0,5.5,138.0,6.7,'11111222,11111222,11111222' 
TCOON,ioos:station:TCOON:005:1,2009-06-03T02:00:00Z,27.6346,-97.2370,0.0,5.6,125.0,6.9,'11111222,11111222,11111222' 
TCOON,ioos:station:TCOON:005:1,2009-06-03T03:00:00Z,27.6346,-97.2370,0.0,6.4,127.0,7.8,'11111222,11111222,11111222' 
TCOON,ioos:station:TCOON:005:1,2009-06-03T04:00:00Z,27.6346,-97.2370,0.0,7.5,129.0,9.5,'11111222,11111222,11111222' 
TCOON,ioos:station:TCOON:005:1,2009-06-03T05:00:00Z,27.6346,-97.2370,0.0,4.8,130.0,6.1,'11111222,11111222,11111222' 
TCOON,ioos:station:TCOON:005:1,2009-06-03T06:00:00Z,27.6346,-97.2370,0.0,4.3,154.0,6.1,'11111222,11111222,11111222' 
TCOON,ioos:station:TCOON:005:1,2009-06-03T07:00:00Z,27.6346,-97.2370,0.0,3.6,155.0,4.6,'11111222,11111222,11111222' 
TCOON,ioos:station:TCOON:005:1,2009-06-03T08:00:00Z,27.6346,-97.2370,0.0,2.7,172.0,3.3,'11111222,11111222,11111222' 
TCOON,ioos:station:TCOON:005:1,2009-06-03T09:00:00Z,27.6346,-97.2370,0.0,1.7,154.0,2.5,'11111222,11111222,11111222' 
TCOON,ioos:station:TCOON:005:1,2009-06-03T10:00:00Z,27.6346,-97.2370,0.0,2.8,183.0,3.4,'11111222,11111222,11111222' 
TCOON,ioos:station:TCOON:005:1,2009-06-03T11:00:00Z,27.6346,-97.2370,0.0,0.9,245.0,1.1,'11111222,11111222,11111222' 
TCOON,ioos:station:TCOON:005:1,2009-06-03T12:00:00Z,27.6346,-97.2370,0.0,5.2,347.0,5.7,'11111222,11111222,11111222' 
TCOON,ioos:station:TCOON:005:1,2009-06-03T13:00:00Z,27.6346,-97.2370,0.0,2.2,303.0,2.7,'11111222,11111222,11111222' 
TCOON,ioos:station:TCOON:005:1,2009-06-03T14:00:00Z,27.6346,-97.2370,0.0,1.7,254.0,2.3,'11111222,11111222,11111222' 
TCOON,ioos:station:TCOON:005:1,2009-06-03T15:00:00Z,27.6346,-97.2370,0.0,3.7,196.0,4.7,'11111222,11111222,11111222' 
TCOON,ioos:station:TCOON:005:1,2009-06-03T16:00:00Z,27.6346,-97.2370,0.0,1.9,224.0,2.6,'11111222,11111222,11111222' 
TCOON,ioos:station:TCOON:005:1,2009-06-03T17:00:00Z,27.6346,-97.2370,0.0,1.3,72.0,2.4,'11111222,11111222,11111222' 
TCOON,ioos:station:TCOON:005:1,2009-06-03T18:00:00Z,27.6346,-97.2370,0.0,3.7,133.0,5.2,'11111222,11111222,11111222' 
TCOON,ioos:station:TCOON:005:1,2009-06-03T19:00:00Z,27.6346,-97.2370,0.0,4.8,109.0,5.4,'11111222,11111222,11111222' 
TCOON,ioos:station:TCOON:005:1,2009-06-03T20:00:00Z,27.6346,-97.2370,0.0,4.9,129.0,6.6,'11111222,11111222,11111222' 
TCOON,ioos:station:TCOON:005:1,2009-06-03T21:00:00Z,27.6346,-97.2370,0.0,6.4,137.0,7.8,'11111222,11111222,11111222' 
TCOON,ioos:station:TCOON:005:1,2009-06-03T22:00:00Z,27.6346,-97.2370,0.0,5.9,134.0,7.4,'11111222,11111222,11111222' 
TCOON,ioos:station:TCOON:005:1,2009-06-03T23:00:00Z,27.6346,-97.2370,0.0,7.1,135.0,8.8,'11111222,11111222,11111222' 
TCOON,ioos:station:TCOON:005:1,2009-06-04T00:00:00Z,27.6346,-97.2370,0.0,5.4,155.0,7.2,'11111222,11111222,11111222' 
TCOON,ioos:station:TCOON:005:1,2009-06-04T01:00:00Z,27.6346,-97.2370,0.0,5.5,165.0,7.2,'11111222,11111222,11111222' 
TCOON,ioos:station:TCOON:005:1,2009-06-04T02:00:00Z,27.6346,-97.2370,0.0,8.9,214.0,10.6,'11111222,11111222,11111222' 
TCOON,ioos:station:TCOON:005:1,2009-06-04T03:00:00Z,27.6346,-97.2370,0.0,2.9,159.0,4.0,'11111222,11111222,11111222' 
TCOON,ioos:station:TCOON:005:1,2009-06-04T04:00:00Z,27.6346,-97.2370,0.0,3.3,253.0,4.0,'11111222,11111222,11111222' 
TCOON,ioos:station:TCOON:005:1,2009-06-04T05:00:00Z,27.6346,-97.2370,0.0,0.7,355.0,1.1,'11111222,11111222,11111222' 
TCOON,ioos:station:TCOON:005:1,2009-06-04T06:00:00Z,27.6346,-97.2370,0.0,1.5,243.0,1.7,'11111222,11111222,11111222' 
TCOON,ioos:station:TCOON:005:1,2009-06-04T07:00:00Z,27.6346,-97.2370,0.0,1.4,258.0,1.6,'11111222,11111222,11111222' 
TCOON,ioos:station:TCOON:005:1,2009-06-04T08:00:00Z,27.6346,-97.2370,0.0,1.4,187.0,1.8,'11111222,11111222,11111222' 
TCOON,ioos:station:TCOON:005:1,2009-06-04T09:00:00Z,27.6346,-97.2370,0.0,1.2,212.0,1.5,'11111222,11111222,11111222' 
TCOON,ioos:station:TCOON:005:1,2009-06-04T10:00:00Z,27.6346,-97.2370,0.0,5.6,317.0,6.6,'11111222,11111222,11111222' 
TCOON,ioos:station:TCOON:005:1,2009-06-04T11:00:00Z,27.6346,-97.2370,0.0,5.0,334.0,5.5,'11111222,11111222,11111222' 
TCOON,ioos:station:TCOON:005:1,2009-06-04T12:00:00Z,27.6346,-97.2370,0.0,5.6,341.0,6.4,'11111222,11111222,11111222' 
TCOON,ioos:station:TCOON:005:1,2009-06-04T13:00:00Z,27.6346,-97.2370,0.0,5.3,320.0,6.4,'11111222,11111222,11111222' 
TCOON,ioos:station:TCOON:005:1,2009-06-04T14:00:00Z,27.6346,-97.2370,0.0,5.3,18.0,7.0,'11111222,11111222,11111222' 
TCOON,ioos:station:TCOON:005:1,2009-06-04T15:00:00Z,27.6346,-97.2370,0.0,4.6,3.0,6.3,'11111222,11111222,11111222' 
TCOON,ioos:station:TCOON:005:1,2009-06-04T16:00:00Z,27.6346,-97.2370,0.0,5.0,31.0,6.0,'11111222,11111222,11111222' 
TCOON,ioos:station:TCOON:005:1,2009-06-04T17:00:00Z,27.6346,-97.2370,0.0,3.5,28.0,4.9,'11111222,11111222,11111222' 
TCOON,ioos:station:TCOON:005:1,2009-06-04T18:00:00Z,27.6346,-97.2370,0.0,3.9,68.0,5.8,'11111222,11111222,11111222' 
TCOON,ioos:station:TCOON:005:1,2009-06-04T19:00:00Z,27.6346,-97.2370,0.0,4.7,92.0,6.1,'11111222,11111222,11111222' 
TCOON,ioos:station:TCOON:005:1,2009-06-04T20:00:00Z,27.6346,-97.2370,0.0,5.0,109.0,5.8,'11111222,11111222,11111222' 
TCOON,ioos:station:TCOON:005:1,2009-06-04T21:00:00Z,27.6346,-97.2370,0.0,5.4,114.0,6.2,'11111222,11111222,11111222' 
TCOON,ioos:station:TCOON:005:1,2009-06-04T22:00:00Z,27.6346,-97.2370,0.0,5.2,105.0,6.0,'11111222,11111222,11111222' 
TCOON,ioos:station:TCOON:005:1,2009-06-04T23:00:00Z,27.6346,-97.2370,0.0,4.7,117.0,6.2,'11111222,11111222,11111222' 
TCOON,ioos:station:TCOON:005:1,2009-06-05T00:00:00Z,27.6346,-97.2370,0.0,4.5,118.0,5.7,'11111222,11111222,11111222' 
TCOON,ioos:station:TCOON:005:1,2009-06-05T01:00:00Z,27.6346,-97.2370,0.0,3.3,131.0,4.1,'11111222,11111222,11111222' 
TCOON,ioos:station:TCOON:005:1,2009-06-05T02:00:00Z,27.6346,-97.2370,0.0,1.8,168.0,2.5,'11111222,11111222,11111222' 
TCOON,ioos:station:TCOON:005:1,2009-06-05T03:00:00Z,27.6346,-97.2370,0.0,2.0,182.0,2.5,'11111222,11111222,11111222' 
TCOON,ioos:station:TCOON:005:1,2009-06-05T04:00:00Z,27.6346,-97.2370,0.0,1.8,185.0,2.2,'11111222,11111222,11111222' 
TCOON,ioos:station:TCOON:005:1,2009-06-05T05:00:00Z,27.6346,-97.2370,0.0,1.7,197.0,2.2,'11111222,11111222,11111222' 
TCOON,ioos:station:TCOON:005:1,2009-06-05T06:00:00Z,27.6346,-97.2370,0.0,1.0,196.0,1.2,'11111222,11111222,11111222' 
TCOON,ioos:station:TCOON:005:1,2009-06-05T07:00:00Z,27.6346,-97.2370,0.0,1.2,304.0,1.3,'11111222,11111222,11111222' 
TCOON,ioos:station:TCOON:005:1,2009-06-05T08:00:00Z,27.6346,-97.2370,0.0,0.4,285.0,0.5,'11111222,11111222,11111222' 
TCOON,ioos:station:TCOON:005:1,2009-06-05T09:00:00Z,27.6346,-97.2370,0.0,1.3,294.0,1.7,'11111222,11111222,11111222' 
TCOON,ioos:station:TCOON:005:1,2009-06-05T10:00:00Z,27.6346,-97.2370,0.0,2.0,288.0,2.7,'11111222,11111222,11111222' 
TCOON,ioos:station:TCOON:005:1,2009-06-05T11:00:00Z,27.6346,-97.2370,0.0,4.0,303.0,4.5,'11111222,11111222,11111222' 
TCOON,ioos:station:TCOON:005:1,2009-06-05T12:00:00Z,27.6346,-97.2370,0.0,2.7,355.0,3.2,'11111222,11111222,11111222' 
TCOON,ioos:station:TCOON:005:1,2009-06-05T13:00:00Z,27.6346,-97.2370,0.0,0.7,90.0,0.8,'11111222,11111222,11111222' 
TCOON,ioos:station:TCOON:005:1,2009-06-05T14:00:00Z,27.6346,-97.2370,0.0,1.4,69.0,1.7,'11111222,11111222,11111222' 
TCOON,ioos:station:TCOON:005:1,2009-06-05T15:00:00Z,27.6346,-97.2370,0.0,1.9,222.0,2.5,'11111222,11111222,11111222' 
TCOON,ioos:station:TCOON:005:1,2009-06-05T16:00:00Z,27.6346,-97.2370,0.0,4.2,90.0,5.1,'11111222,11111222,11111222' 
TCOON,ioos:station:TCOON:005:1,2009-06-05T17:00:00Z,27.6346,-97.2370,0.0,5.0,76.0,6.3,'11111222,11111222,11111222' 
TCOON,ioos:station:TCOON:005:1,2009-06-05T18:00:00Z,27.6346,-97.2370,0.0,5.2,87.0,6.5,'11111222,11111222,11111222' 
TCOON,ioos:station:TCOON:005:1,2009-06-05T19:00:00Z,27.6346,-97.2370,0.0,6.2,85.0,7.4,'11111222,11111222,11111222' 
TCOON,ioos:station:TCOON:005:1,2009-06-05T20:00:00Z,27.6346,-97.2370,0.0,5.0,81.0,99.0,'11111222,11111222,11144222' 
TCOON,ioos:station:TCOON:005:1,2009-06-05T21:00:00Z,27.6346,-97.2370,0.0,6.3,97.0,7.9,'11111222,11111222,11111222' 
TCOON,ioos:station:TCOON:005:1,2009-06-05T22:00:00Z,27.6346,-97.2370,0.0,6.3,95.0,7.3,'11111222,11111222,11111222' 
TCOON,ioos:station:TCOON:005:1,2009-06-05T23:00:00Z,27.6346,-97.2370,0.0,6.6,107.0,7.8,'11111222,11111222,11111222' 
TCOON,ioos:station:TCOON:005:1,2009-06-06T00:00:00Z,27.6346,-97.2370,0.0,6.5,117.0,7.6,'11111222,11111222,11111222' 
TCOON,ioos:station:TCOON:005:1,2009-06-06T01:00:00Z,27.6346,-97.2370,0.0,5.9,112.0,7.0,'11111222,11111222,11111222' 
TCOON,ioos:station:TCOON:005:1,2009-06-06T02:00:00Z,27.6346,-97.2370,0.0,4.9,118.0,5.9,'11111222,11111222,11111222' 
TCOON,ioos:station:TCOON:005:1,2009-06-06T03:00:00Z,27.6346,-97.2370,0.0,3.1,140.0,4.1,'11111222,11111222,11111222' 
TCOON,ioos:station:TCOON:005:1,2009-06-06T04:00:00Z,27.6346,-97.2370,0.0,3.9,147.0,4.9,'11111222,11111222,11111222' 
TCOON,ioos:station:TCOON:005:1,2009-06-06T05:00:00Z,27.6346,-97.2370,0.0,3.0,155.0,4.1,'11111222,11111222,11111222' 
TCOON,ioos:station:TCOON:005:1,2009-06-06T06:00:00Z,27.6346,-97.2370,0.0,3.2,157.0,4.0,'11111222,11111222,11111222' 
TCOON,ioos:station:TCOON:005:1,2009-06-06T07:00:00Z,27.6346,-97.2370,0.0,3.7,153.0,5.5,'11111222,11111222,11111222' 
TCOON,ioos:station:TCOON:005:1,2009-06-06T08:00:00Z,27.6346,-97.2370,0.0,3.5,164.0,5.1,'11111222,11111222,11111222' 
TCOON,ioos:station:TCOON:005:1,2009-06-06T09:00:00Z,27.6346,-97.2370,0.0,2.4,174.0,3.1,'11111222,11111222,11111222' 
TCOON,ioos:station:TCOON:005:1,2009-06-06T10:00:00Z,27.6346,-97.2370,0.0,1.7,163.0,2.4,'11111222,11111222,11111222' 
TCOON,ioos:station:TCOON:005:1,2009-06-06T11:00:00Z,27.6346,-97.2370,0.0,2.3,155.0,3.2,'11111222,11111222,11111222' 
TCOON,ioos:station:TCOON:005:1,2009-06-06T12:00:00Z,27.6346,-97.2370,0.0,2.1,159.0,2.8,'11111222,11111222,11111222' 
TCOON,ioos:station:TCOON:005:1,2009-06-06T13:00:00Z,27.6346,-97.2370,0.0,4.4,144.0,5.6,'11111222,11111222,11111222' 
TCOON,ioos:station:TCOON:005:1,2009-06-06T14:00:00Z,27.6346,-97.2370,0.0,5.5,139.0,7.2,'11111222,11111222,11111222' 
TCOON,ioos:station:TCOON:005:1,2009-06-06T15:00:00Z,27.6346,-97.2370,0.0,4.4,133.0,5.5,'11111222,11111222,11111222' 
TCOON,ioos:station:TCOON:005:1,2009-06-06T16:00:00Z,27.6346,-97.2370,0.0,5.1,137.0,8.8,'11111222,11111222,11111222' 
TCOON,ioos:station:TCOON:005:1,2009-06-06T17:00:00Z,27.6346,-97.2370,0.0,5.3,133.0,7.2,'11111222,11111222,11111222' 
TCOON,ioos:station:TCOON:005:1,2009-06-06T18:00:00Z,27.6346,-97.2370,0.0,6.2,121.0,7.6,'11111222,11111222,11111222' 
TCOON,ioos:station:TCOON:005:1,2009-06-06T19:00:00Z,27.6346,-97.2370,0.0,6.1,137.0,8.4,'11111222,11111222,11111222' 
TCOON,ioos:station:TCOON:005:1,2009-06-06T20:00:00Z,27.6346,-97.2370,0.0,7.1,117.0,9.3,'11111222,11111222,11111222' 
TCOON,ioos:station:TCOON:005:1,2009-06-06T21:00:00Z,27.6346,-97.2370,0.0,5.6,142.0,8.2,'11111222,11111222,11111222' 
TCOON,ioos:station:TCOON:005:1,2009-06-06T22:00:00Z,27.6346,-97.2370,0.0,4.7,148.0,7.0,'11111222,11111222,11111222' 
TCOON,ioos:station:TCOON:005:1,2009-06-06T23:00:00Z,27.6346,-97.2370,0.0,4.7,150.0,6.8,'11111222,11111222,11111222' 
TCOON,ioos:station:TCOON:005:1,2009-06-07T00:00:00Z,27.6346,-97.2370,0.0,5.5,129.0,7.4,'11111222,11111222,11111222' 
TCOON,ioos:station:TCOON:005:1,2009-06-07T01:00:00Z,27.6346,-97.2370,0.0,4.4,140.0,5.6,'11111222,11111222,11111222' 
TCOON,ioos:station:TCOON:005:1,2009-06-07T02:00:00Z,27.6346,-97.2370,0.0,4.6,123.0,5.8,'11111222,11111222,11111222' 
TCOON,ioos:station:TCOON:005:1,2009-06-07T03:00:00Z,27.6346,-97.2370,0.0,5.1,144.0,7.0,'11111222,11111222,11111222' 
TCOON,ioos:station:TCOON:005:1,2009-06-07T04:00:00Z,27.6346,-97.2370,0.0,4.6,143.0,5.5,'11111222,11111222,11111222' 
TCOON,ioos:station:TCOON:005:1,2009-06-07T05:00:00Z,27.6346,-97.2370,0.0,4.2,147.0,5.5,'11111222,11111222,11111222' 
TCOON,ioos:station:TCOON:005:1,2009-06-07T06:00:00Z,27.6346,-97.2370,0.0,4.1,150.0,5.9,'11111222,11111222,11111222' 
TCOON,ioos:station:TCOON:005:1,2009-06-07T07:00:00Z,27.6346,-97.2370,0.0,4.1,156.0,5.6,'11111222,11111222,11111222' 
TCOON,ioos:station:TCOON:005:1,2009-06-07T08:00:00Z,27.6346,-97.2370,0.0,4.1,150.0,5.8,'11111222,11111222,11111222' 
TCOON,ioos:station:TCOON:005:1,2009-06-07T09:00:00Z,27.6346,-97.2370,0.0,5.0,141.0,7.4,'11111222,11111222,11111222' 
TCOON,ioos:station:TCOON:005:1,2009-06-07T10:00:00Z,27.6346,-97.2370,0.0,5.5,147.0,7.3,'11111222,11111222,11111222' 
TCOON,ioos:station:TCOON:005:1,2009-06-07T11:00:00Z,27.6346,-97.2370,0.0,5.0,145.0,6.7,'11111222,11111222,11111222' 
TCOON,ioos:station:TCOON:005:1,2009-06-07T12:00:00Z,27.6346,-97.2370,0.0,4.7,151.0,6.4,'11111222,11111222,11111222' 
TCOON,ioos:station:TCOON:005:1,2009-06-07T13:00:00Z,27.6346,-97.2370,0.0,5.3,144.0,6.6,'11111222,11111222,11111222' 
TCOON,ioos:station:TCOON:005:1,2009-06-07T14:00:00Z,27.6346,-97.2370,0.0,5.9,156.0,7.7,'11111222,11111222,11111222' 
TCOON,ioos:station:TCOON:005:1,2009-06-07T15:00:00Z,27.6346,-97.2370,0.0,6.4,146.0,9.2,'11111222,11111222,11111222' 
TCOON,ioos:station:TCOON:005:1,2009-06-07T16:00:00Z,27.6346,-97.2370,0.0,5.5,153.0,7.2,'11111222,11111222,11111222' 
TCOON,ioos:station:TCOON:005:1,2009-06-07T17:00:00Z,27.6346,-97.2370,0.0,5.8,165.0,7.7,'11111222,11111222,11111222' 
TCOON,ioos:station:TCOON:005:1,2009-06-07T18:00:00Z,27.6346,-97.2370,0.0,6.1,137.0,9.1,'11111222,11111222,11111222' 
TCOON,ioos:station:TCOON:005:1,2009-06-07T19:00:00Z,27.6346,-97.2370,0.0,6.2,146.0,15.4,'11111222,11111222,11111222' 
TCOON,ioos:station:TCOON:005:1,2009-06-07T20:00:00Z,27.6346,-97.2370,0.0,8.1,144.0,10.2,'11111222,11111222,11111222' 
TCOON,ioos:station:TCOON:005:1,2009-06-07T21:00:00Z,27.6346,-97.2370,0.0,8.8,129.0,10.9,'11111222,11111222,11111222' 
TCOON,ioos:station:TCOON:005:1,2009-06-07T22:00:00Z,27.6346,-97.2370,0.0,8.7,134.0,10.9,'11111222,11111222,11111222' 
TCOON,ioos:station:TCOON:005:1,2009-06-07T23:00:00Z,27.6346,-97.2370,0.0,8.4,131.0,10.4,'11111222,11111222,11111222' 
TCOON,ioos:station:TCOON:005:1,2009-06-08T00:00:00Z,27.6346,-97.2370,0.0,8.4,129.0,11.1,'11111222,11111222,11111222' 
TCOON,ioos:station:TCOON:005:1,2009-06-08T01:00:00Z,27.6346,-97.2370,0.0,7.0,124.0,10.8,'11111222,11111222,11111222' 
TCOON,ioos:station:TCOON:005:1,2009-06-08T02:00:00Z,27.6346,-97.2370,0.0,8.1,130.0,99.0,'11111222,11111222,11144222' 
TCOON,ioos:station:TCOON:005:1,2009-06-08T03:00:00Z,27.6346,-97.2370,0.0,6.9,133.0,8.8,'11111222,11111222,11111222' 
TCOON,ioos:station:TCOON:005:1,2009-06-08T04:00:00Z,27.6346,-97.2370,0.0,7.2,143.0,9.4,'11111222,11111222,11111222' 
TCOON,ioos:station:TCOON:005:1,2009-06-08T05:00:00Z,27.6346,-97.2370,0.0,6.8,143.0,9.3,'11111222,11111222,11111222' 
TCOON,ioos:station:TCOON:005:1,2009-06-08T06:00:00Z,27.6346,-97.2370,0.0,5.9,154.0,8.6,'11111222,11111222,11111222' 
TCOON,ioos:station:TCOON:005:1,2009-06-08T07:00:00Z,27.6346,-97.2370,0.0,5.8,159.0,8.8,'11111222,11111222,11111222' 
TCOON,ioos:station:TCOON:005:1,2009-06-08T08:00:00Z,27.6346,-97.2370,0.0,6.0,155.0,8.1,'11111222,11111222,11111222' 
TCOON,ioos:station:TCOON:005:1,2009-06-08T09:00:00Z,27.6346,-97.2370,0.0,6.6,150.0,8.3,'11111222,11111222,11111222' 
TCOON,ioos:station:TCOON:005:1,2009-06-08T10:00:00Z,27.6346,-97.2370,0.0,5.6,143.0,8.1,'11111222,11111222,11111222' 
TCOON,ioos:station:TCOON:005:1,2009-06-08T11:00:00Z,27.6346,-97.2370,0.0,6.7,154.0,28.6,'11111222,11111222,11111222' 
TCOON,ioos:station:TCOON:005:1,2009-06-08T12:00:00Z,27.6346,-97.2370,0.0,5.6,152.0,6.9,'11111222,11111222,11111222' 
TCOON,ioos:station:TCOON:005:1,2009-06-08T13:00:00Z,27.6346,-97.2370,0.0,6.6,160.0,10.0,'11111222,11111222,11111222' 
TCOON,ioos:station:TCOON:005:1,2009-06-08T14:00:00Z,27.6346,-97.2370,0.0,7.2,156.0,10.0,'11111222,11111222,11111222' 
TCOON,ioos:station:TCOON:005:1,2009-06-08T15:00:00Z,27.6346,-97.2370,0.0,7.7,170.0,9.7,'11111222,11111222,11111222' 
TCOON,ioos:station:TCOON:005:1,2009-06-08T16:00:00Z,27.6346,-97.2370,0.0,6.7,153.0,9.2,'11111222,11111222,11111222' 
TCOON,ioos:station:TCOON:005:1,2009-06-08T17:00:00Z,27.6346,-97.2370,0.0,7.9,159.0,9.6,'11111222,11111222,11111222' 
TCOON,ioos:station:TCOON:005:1,2009-06-08T18:00:00Z,27.6346,-97.2370,0.0,6.5,145.0,8.8,'11111222,11111222,11111222' 
TCOON,ioos:station:TCOON:005:1,2009-06-08T19:00:00Z,27.6346,-97.2370,0.0,5.9,148.0,7.4,'11111222,11111222,11111222' 
TCOON,ioos:station:TCOON:005:1,2009-06-08T20:00:00Z,27.6346,-97.2370,0.0,7.0,141.0,8.6,'11111222,11111222,11111222' 
TCOON,ioos:station:TCOON:005:1,2009-06-08T21:00:00Z,27.6346,-97.2370,0.0,8.5,124.0,9.8,'11111222,11111222,11111222' 
TCOON,ioos:station:TCOON:005:1,2009-06-08T22:00:00Z,27.6346,-97.2370,0.0,8.8,124.0,10.4,'11111222,11111222,11111222' 
TCOON,ioos:station:TCOON:005:1,2009-06-08T23:00:00Z,27.6346,-97.2370,0.0,7.2,122.0,9.4,'11111222,11111222,11111222' 
TCOON,ioos:station:TCOON:005:1,2009-06-09T00:00:00Z,27.6346,-97.2370,0.0,7.2,133.0,9.4,'11111222,11111222,11111222' 
TCOON,ioos:station:TCOON:005:1,2009-06-09T01:00:00Z,27.6346,-97.2370,0.0,6.9,128.0,9.0,'11111222,11111222,11111222' 
TCOON,ioos:station:TCOON:005:1,2009-06-09T02:00:00Z,27.6346,-97.2370,0.0,5.2,124.0,6.2,'11111222,11111222,11111222' 
TCOON,ioos:station:TCOON:005:1,2009-06-09T03:00:00Z,27.6346,-97.2370,0.0,5.3,124.0,7.0,'11111222,11111222,11111222' 
TCOON,ioos:station:TCOON:005:1,2009-06-09T04:00:00Z,27.6346,-97.2370,0.0,7.1,125.0,9.6,'11111222,11111222,11111222' 
TCOON,ioos:station:TCOON:005:1,2009-06-09T05:00:00Z,27.6346,-97.2370,0.0,7.1,126.0,9.0,'11111222,11111222,11111222' 
TCOON,ioos:station:TCOON:005:1,2009-06-09T06:00:00Z,27.6346,-97.2370,0.0,7.0,129.0,8.6,'11111222,11111222,11111222' 
TCOON,ioos:station:TCOON:005:1,2009-06-09T07:00:00Z,27.6346,-97.2370,0.0,4.6,142.0,6.1,'11111222,11111222,11111222' 
TCOON,ioos:station:TCOON:005:1,2009-06-09T08:00:00Z,27.6346,-97.2370,0.0,5.5,146.0,7.0,'11111222,11111222,11111222' 
TCOON,ioos:station:TCOON:005:1,2009-06-09T09:00:00Z,27.6346,-97.2370,0.0,5.1,144.0,6.8,'11111222,11111222,11111222' 
TCOON,ioos:station:TCOON:005:1,2009-06-09T10:00:00Z,27.6346,-97.2370,0.0,3.9,156.0,5.3,'11111222,11111222,11111222' 
TCOON,ioos:station:TCOON:005:1,2009-06-09T11:00:00Z,27.6346,-97.2370,0.0,6.0,148.0,8.0,'11111222,11111222,11111222' 
TCOON,ioos:station:TCOON:005:1,2009-06-09T12:00:00Z,27.6346,-97.2370,0.0,4.7,149.0,6.7,'11111222,11111222,11111222' 